Find GFO

NORAD ID: 25157 Int'l Des: 1998-007 Owner: USN Country: US operational
LEOCIRCULARRETROGRADE

現在のビュー

3D地球を読み込み中...

About GFO

GFO (NORAD 25157) is a satellite launched Feb 10, 1998 by USN of US. It operates in LEO, CIRCULAR, RETROGRADE orbit with a mass of 365.00 kg.

次回通過

Passes for default location (London). Set your location on the main map for personalized predictions.

高度履歴

Loading altitude history...

軌道要素

1 25157U 98007A 26195.04695043 .00284492 42936-4 54941-3 0 9991
2 25157 107.9942 232.6242 0021770 257.9078 101.9708 15.99880085530782
Epoch: Jul 14, 2026 • Age: 13 hours

現在のステータス

高度 285.9 km
遠地点 / 近地点 N/A
速度 7.74 km/s
衛星直下点 -72.07°S, 178.85°W
打ち上げ日 Feb 10, 1998
運用期間 28.4 years
タイプ other

技術仕様

分類 Payload
質量 365.00 kg
乾燥質量 300.00 kg
総質量 365.00 kg
長さ 2.70 m
直径 1.00 m
スパン 2.70 m
形状 Cyl + Dish + Pan
製造者 BALL
バスタイプ BCP-2000/Tchstar
フェーズステータス In Orbit
所有者/国 USN/US

Most Searched